1359504031824,18.3211
1359504091824,18.2752
1359504151824,18.3242
1359504211824,18.2756
1359504271824,18.2847
1359504331824,18.2963
1359504391824,18.2672
1359504451824,18.2657
1359504511824,18.3039
1359504571824,18.2990
1359504631824,18.2848
1359504691824,18.3120
1359504751824,18.2905
1359504811824,18.2984
1359504871824,18.2874
1359504931824,18.3373
1359504991824,18.3223
1359505051824,18.3137
1359505111824,18.3068
1359505171824,18.3686
1359505231824,18.3433
1359505291824,18.3151
1359505351824,18.3459
1359505411824,18.3317
1359505471824,18.2775
1359505531824,18.4052
1359505591824,18.3205
1359505651824,18.3183
1359505711824,18.3751
1359505771824,18.3518
1359505831824,18.2809
1359505891824,18.3302
1359505951824,18.2936
1359506011824,18.3036
1359506071824,18.2847
1359506131824,18.3396
1359506191824,18.3203
1359506251824,18.3165
1359506311824,18.2818
1359506371824,18.2925
1359506431824,18.3202
1359506491824,18.2842
1359506551824,18.3512
1359506611824,18.3204
1359506671824,18.3325
1359506731824,18.2992
1359506791824,18.3184
1359506851824,18.3615
1359506911824,18.2999
1359506971824,18.3350
1359507031824,18.3169
1359507091824,18.3456
1359507151824,18.3567
1359507211824,18.3858
1359507271824,18.3652
1359507331824,18.3273
1359507391824,18.3997
1359507451824,18.3506
1359507511824,18.3850
1359507571824,18.3497
1359507631835,18.3478
1359507691835,18.3462
1359507751835,18.3842
1359507811835,18.3974
1359507871835,18.4215
1359507931835,18.3862
1359507991835,18.3894
1359508051835,18.3823
1359508111835,18.3545
1359508171835,18.3673
1359508231835,18.3794
1359508291835,18.3495
1359508351835,18.3119
1359508411835,18.4091
1359508471835,18.3592
1359508531835,18.3969
1359508591835,18.3076
1359508651835,18.3929
1359508711835,18.3618
1359508771835,18.3671
1359508831835,18.3958
1359508891835,18.3737
1359508951835,18.3737
1359509011835,18.3680
1359509071835,18.3454
1359509131835,18.3550
1359509191835,18.4184
1359509251835,18.3322
1359509311835,18.3928
1359509371835,18.3531
1359509431835,18.3014
1359509491835,18.3383
1359509551835,18.3481
1359509611835,18.3399
1359509671835,18.3898
1359509731835,18.3470
1359509791835,18.3715
1359509851835,18.3713
1359509911835,18.3885
1359509971835,18.2732
1359510031835,18.3860
1359510091835,18.3001
1359510151835,18.3694
1359510211835,18.4105
1359510271835,18.2910
1359510331835,18.3623
1359510391835,18.3465
1359510451835,18.3949
1359510511835,18.4368
1359510571835,18.3859
1359510631835,18.3560
1359510691835,18.3433
1359510751835,18.3951
1359510811835,18.3914
1359510871835,18.3795
1359510931835,18.3842
1359510991835,18.4098
1359511051835,18.3947
1359511111835,18.3148
1359511171835,18.3322
1359511231845,18.3842
1359511291845,18.3496
1359511351845,18.3500
1359511411845,18.3579
1359511471845,18.3484
1359511531845,18.3412
1359511591845,18.3407
1359511651845,18.3976
1359511711845,18.3372
1359511771845,18.3220
1359511831845,18.3360
1359511891845,18.4036
1359511951845,18.4035
1359512011845,18.3979
1359512071845,18.4155
1359512131845,18.4213
1359512191845,18.3546
1359512251845,18.3656
1359512311845,18.4316
1359512371845,18.3537
1359512431845,18.3840
1359512491845,18.3601
1359512551845,18.4564
1359512611845,18.3787
1359512671845,18.3988
1359512731845,18.3921
1359512791845,18.3315
1359512851845,18.3675
1359512911845,18.4373
1359512971845,18.4401
1359513031845,18.3790
1359513091845,18.4108
1359513151845,18.3881
1359513211845,18.4645
1359513271845,18.4050
1359513331845,18.3152
1359513391845,18.3731
1359513451845,18.3667
1359513511845,18.3885
1359513571845,18.3557
1359513631845,18.3360
1359513691845,18.3598
1359513751845,18.3334
1359513811845,18.4083
1359513871845,18.3772
1359513931845,18.3524
1359513991845,18.3165
1359514051845,18.4119
1359514111845,18.3636
1359514171845,18.4250
1359514231845,18.3750
1359514291845,18.4412
1359514351845,18.4143
1359514411845,18.5056
1359514471845,18.4355
1359514531845,18.4191
1359514591845,18.4187
1359514651845,18.4235
1359514711845,18.4371
1359514771845,18.4215
1359514831856,18.4855
1359514891856,18.4645
1359514951856,18.4892
1359515011856,18.4806
1359515071856,18.5090
1359515131856,18.4745
1359515191856,18.4269
1359515251856,18.4197
1359515311856,18.3590
1359515371856,18.4369
1359515431856,18.4059
1359515491856,18.4533
1359515551856,18.4098
1359515611856,18.4194
1359515671856,18.4158
1359515731856,18.4095
1359515791856,18.4337
1359515851856,18.4108
1359515911856,18.4489
1359515971856,18.3948
1359516031856,18.3545
1359516091856,18.3753
1359516151856,18.3736
1359516211856,18.3203
1359516271856,18.3524
1359516331856,18.3104
1359516391856,18.3465
1359516451856,18.3920
1359516511856,18.3981
1359516571856,18.3641
1359516631856,18.3862
1359516691856,18.4364
1359516751856,18.3161
1359516811856,18.3979
1359516871856,18.3839
1359516931856,18.3418
1359516991856,18.3930
1359517051856,18.3935
1359517111856,18.3953
1359517171856,18.3317
1359517231856,18.3787
1359517291856,18.3578
1359517351856,18.4402
1359517411856,18.3343
1359517471856,18.3443
1359517531856,18.2906
1359517591856,18.3473
1359517651856,18.3314
1359517711856,18.2808
1359517771856,18.3772
1359517831856,18.3399
1359517891856,18.2927
1359517951856,18.2909
1359518011856,18.3154
1359518071856,18.2877
1359518131856,18.3074
1359518191856,18.2894
1359518251856,18.3190
1359518311856,18.3254
1359518371856,18.3578
1359518431867,18.3673
1359518491867,18.3583
1359518551867,18.3621
1359518611867,18.3431
1359518671867,18.3217
1359518731867,18.3090
1359518791867,18.3241
1359518851867,18.3644
1359518911867,18.3032
1359518971867,18.2904
1359519031867,18.3026
1359519091867,18.3355
1359519151867,18.3147
1359519211867,18.3527
1359519271867,18.3081
1359519331867,18.4004
1359519391867,18.3578
1359519451867,18.3678
1359519511867,18.2718
1359519571867,18.3732
1359519631867,18.3918
1359519691867,18.3502
1359519751867,18.3066
1359519811867,18.3224
1359519871867,18.2887
1359519931867,18.3051
1359519991867,18.3445
1359520051867,18.3351
1359520111867,18.3293
1359520171867,18.3310
1359520231867,18.3511
1359520291867,18.3269
1359520351867,18.3895
1359520411867,18.3746
1359520471867,18.3925
1359520531867,18.3865
1359520591867,18.3618
1359520651867,18.2979
1359520711867,18.3412
1359520771867,18.3592
1359520831867,18.4048
1359520891867,18.3803
1359520951867,18.3784
1359521011867,18.3727
1359521071867,18.3898
1359521131867,18.3755
1359521191867,18.3823
1359521251867,18.4560
1359521311867,18.4766
1359521371867,18.4482
1359521431867,18.4207
1359521491867,18.4821
1359521551867,18.4133
1359521611867,18.4372
1359521671867,18.3774
1359521731867,18.4086
1359521791867,18.3523
1359521851867,18.4143
1359521911867,18.3876
1359521971867,18.4314
1359522031878,18.3863
1359522091878,18.3679
1359522151878,18.4248
1359522211878,18.4502
1359522271878,18.4172
1359522331878,18.3853
1359522391878,18.3893
1359522451878,18.3983
1359522511878,18.4246
1359522571878,18.4130
1359522631878,18.2887
1359522691878,18.3897
1359522751878,18.3990
1359522811878,18.4789
1359522871878,18.4423
1359522931878,18.4304
1359522991878,18.4210
1359523051878,18.4129
1359523111878,18.4514
1359523171878,18.4485
1359523231878,18.3752
1359523291878,18.4109
1359523351878,18.3846
1359523411878,18.4068
1359523471878,18.3989
1359523531878,18.4231
1359523591878,18.4251
1359523651878,18.3253
1359523711878,18.3989
1359523771878,18.4404
1359523831878,18.4147
1359523891878,18.4236
1359523951878,18.3850
1359524011878,18.4154
1359524071878,18.3949
1359524131878,18.4368
1359524191878,18.4338
1359524251878,18.4544
1359524311878,18.3921
1359524371878,18.4413
1359524431878,18.4331
1359524491878,18.3866
1359524551878,18.4361
1359524611878,18.4287
1359524671878,18.3577
1359524731878,18.4220
1359524791878,18.3575
1359524851878,18.3332
1359524911878,18.4142
1359524971878,18.3636
1359525031878,18.3392
1359525091878,18.3085
1359525151878,18.3363
1359525211878,18.4056
1359525271878,18.3673
1359525331878,18.3290
1359525391878,18.4374
1359525451878,18.4010
1359525511878,18.3676
1359525571878,18.3154
1359525631889,18.3789
1359525691889,18.3266
1359525751889,18.4141
1359525811889,18.3707
1359525871889,18.3605
1359525931889,18.3597
1359525991889,18.4108
1359526051889,18.3217
1359526111889,18.3853
1359526171889,18.3626
1359526231889,18.3756
1359526291889,18.3770
1359526351889,18.3593
1359526411889,18.3799
1359526471889,18.4105
1359526531889,18.4138
1359526591889,18.3969
1359526651889,18.4162
1359526711889,18.4518
1359526771889,18.4576
1359526831889,18.3875
1359526891889,18.4405
1359526951889,18.3989
1359527011889,18.3874
1359527071889,18.3993
1359527131889,18.3660
1359527191889,18.3956
1359527251889,18.3632
1359527311889,18.3696
1359527371889,18.3591
1359527431889,18.3278
1359527491889,18.3671
1359527551889,18.3261
1359527611889,18.3071
1359527671889,18.3828
1359527731889,18.3628
1359527791889,18.3499
1359527851889,18.3206
1359527911889,18.3428
1359527971889,18.3463
1359528031889,18.3667
1359528091889,18.4037
1359528151889,18.3377
1359528211889,18.3629
1359528271889,18.3783
1359528331889,18.4111
1359528391889,18.3912
1359528451889,18.3736
1359528511889,18.7796
1359528571889,18.4351
1359528631889,18.4179
1359528691889,18.4058
1359528751889,18.3241
1359528811889,18.3832
1359528871889,18.4095
1359528931889,18.4259
1359528991889,18.4101
1359529051889,18.3739
1359529111889,18.3476
1359529171889,18.3368
1359529231900,18.3867
1359529291900,18.3658
1359529351900,18.3771
1359529411900,18.4106
1359529471900,18.3369
1359529531900,18.3380
1359529591900,18.3043
1359529651900,18.3598
1359529711900,18.3890
1359529771900,18.3808
1359529831900,18.3843
1359529891900,18.3682
1359529951900,18.3934
1359530011900,18.3926
1359530071900,18.3345
1359530131900,18.3780
1359530191900,18.3719
1359530251900,18.2861
1359530311900,18.3292
1359530371900,18.3485
1359530431900,18.3481
1359530491900,18.3653
1359530551900,18.3411
1359530611900,18.3242
1359530671900,18.3373
1359530731900,18.3423
1359530791900,18.3479
1359530851900,18.2640
1359530911900,18.3429
1359530971900,18.3390
1359531031900,18.2590
1359531091900,18.3151
1359531151900,18.3779
1359531211900,18.4039
1359531271900,18.2034
1359531331900,18.3174
1359531391900,18.2868
1359531451900,18.3196
1359531511900,18.3415
1359531571900,18.3672
1359531631900,18.3125
1359531691900,18.3337
1359531751900,18.2677
1359531811900,18.1487
1359531871900,18.2602
1359531931900,18.2852
1359531991900,18.3192
1359532051900,18.3134
1359532111900,18.3069
1359532171900,18.3293
1359532231900,18.2998
1359532291900,18.2701
1359532351900,18.2941
1359532411900,18.3175
1359532471900,18.2378
1359532531900,18.3024
1359532591900,18.2179
1359532651900,18.2609
1359532711900,18.3395
1359532771900,18.3748
1359532831911,18.3645
1359532891911,18.3039
1359532951911,18.3771
1359533011911,18.3587
1359533071911,18.3265
1359533131911,18.2514
1359533191911,18.3794
1359533251911,18.3156
1359533311911,18.3247
1359533371911,18.4018
1359533431911,18.2424
1359533491911,18.3464
1359533551911,18.2744
1359533611911,18.3590
1359533671911,18.3227
1359533731911,18.3727
1359533791911,18.3220
1359533851911,18.3211
1359533911911,18.3793
1359533971911,18.3434
1359534031911,18.3219
1359534091911,18.3449
1359534151911,18.3048
1359534211911,18.3183
1359534271911,18.3678
1359534331911,18.3097
1359534391911,18.3226
1359534451911,18.2980
1359534511911,18.3363
1359534571911,18.3097
1359534631911,18.3153
1359534691911,18.2932
1359534751911,18.3920
1359534811911,18.3781
1359534871911,18.3728
1359534931911,18.2479
1359534991911,18.3295
1359535051911,18.3003
1359535111911,18.4032
1359535171911,18.3272
1359535231911,18.3071
1359535291911,18.3997
1359535351911,18.2767
1359535411911,18.3046
1359535471911,18.3979
1359535531911,18.3425
1359535591911,18.3298
1359535651911,18.3755
1359535711911,18.4107
1359535771911,18.3945
1359535831911,18.3999
1359535891911,18.3757
1359535951911,18.3898
1359536011911,18.3718
1359536071911,18.3748
1359536131911,18.3990
1359536191911,18.3454
1359536251911,18.4008
1359536311911,18.3774
1359536371911,18.3646
1359536431923,18.3237
1359536491923,18.3851
1359536551923,18.3805
1359536611923,18.2842
1359536671923,18.4289
1359536731923,18.4270
1359536791923,18.4256
1359536851923,18.3816
1359536911923,18.3703
1359536971923,18.3840
1359537031923,18.4079
1359537091923,18.3995
1359537151923,18.3927
1359537211923,18.3979
1359537271923,18.3915
1359537331923,18.3911
1359537391923,18.3959
1359537451923,18.4087
1359537511923,18.4066
1359537571923,18.4161
1359537631923,18.3997
1359537691923,18.4379
1359537751923,18.3729
1359537811923,18.4339
1359537871923,18.3453
1359537931923,18.3580
1359537991923,18.2996
1359538051923,18.4004
1359538111923,18.3443
1359538171923,18.3565
1359538231923,18.3025
1359538291923,18.2439
1359538351923,18.3601
1359538411923,18.3060
1359538471923,18.3185
1359538531923,18.3244
1359538591923,18.3592
1359538651923,18.3004
1359538711923,18.3556
1359538771923,18.3004
1359538831923,18.3149
1359538891923,18.3669
1359538951923,18.3245
1359539011923,18.3474
1359539071923,18.3103
1359539131923,18.3018
1359539191923,18.3259
1359539251923,18.3803
1359539311923,18.2983
1359539371923,18.3404
1359539431923,18.3346
1359539491923,18.3474
1359539551923,18.3840
1359539611923,18.4043
1359539671923,18.3606
1359539731923,18.2925
1359539791923,18.4166
1359539851923,18.4370
1359539911923,18.3805
1359539971923,18.4289
1359540031934,18.4251
1359540091934,18.3826
1359540151934,18.4110
1359540211934,18.3703
1359540271934,18.4666
1359540331934,18.3420
1359540391934,18.3703
1359540451934,18.4018
1359540511934,18.3541
1359540571934,18.4261
1359540631934,18.3972
1359540691934,18.4213
1359540751934,18.3940
1359540811934,18.3857
1359540871934,18.3510
1359540931934,18.3132
1359540991934,18.3854
1359541051934,18.3500
1359541111934,18.3336
1359541171934,18.3990
1359541231934,18.3301
1359541291934,18.3208
1359541351934,18.3432
1359541411934,18.3031
1359541471934,18.4224
1359541531934,18.3726
1359541591934,18.3105
1359541651934,18.3528
1359541711934,18.3114
1359541771934,18.3192
1359541831934,18.2781
1359541891934,18.2653
1359541951934,18.3318
1359542011934,18.3430
1359542071934,18.2945
1359542131934,18.2872
1359542191934,18.2837
1359542251934,18.3233
1359542311934,18.3210
1359542371934,18.3092
1359542431934,18.2908
1359542491934,18.3360
1359542551934,18.2850
1359542611934,18.3087
1359542671934,18.2888
1359542731934,18.3349
1359542791934,18.2714
1359542851934,18.2636
1359542911934,18.3208
1359542971934,18.2937
1359543031934,18.2573
1359543091934,18.2287
1359543151934,18.2606
1359543211934,18.2814
1359543271934,18.2754
1359543331934,18.3152
1359543391934,18.3169
1359543451934,18.2725
1359543511934,18.2562
1359543571934,18.3024
1359543631946,18.2825
1359543691946,18.3541
1359543751946,18.3806
1359543811946,18.2690
1359543871946,18.2673
1359543931946,18.2993
1359543991946,18.2781
1359544051946,18.3113
1359544111946,18.2988
1359544171946,18.3192
1359544231946,18.3531
1359544291946,18.2801
1359544351946,18.2735
1359544411946,18.3057
1359544471946,18.2808
1359544531946,18.2224
1359544591946,18.3199
1359544651946,18.3651
1359544711946,18.2911
1359544771946,18.3426
1359544831946,18.2998
1359544891946,18.3194
1359544951946,18.3412
1359545011946,18.2982
1359545071946,18.2650
1359545131946,18.3051
1359545191946,18.2736
1359545251946,18.3471
1359545311946,18.3021
1359545371946,18.2475
1359545431946,18.2421
1359545491946,18.3570
1359545551946,18.2793
1359545611946,18.3188
1359545671946,18.2531
1359545731946,18.2966
1359545791946,18.2914
1359545851946,18.3030
1359545911946,18.3157
1359545971946,18.3228
1359546031946,18.3186
1359546091946,18.3429
1359546151946,18.3362
1359546211946,18.3581
1359546271946,18.3087
1359546331946,18.2932
1359546391946,18.2872
1359546451946,18.2528
1359546511946,18.2961
1359546571946,18.2836
1359546631946,18.2386
1359546691946,18.2933
1359546751946,18.2522
1359546811946,18.2566
1359546871946,18.2738
1359546931946,18.3278
1359546991946,18.2728
1359547051946,18.2820
1359547111946,18.2726
1359547171946,18.2776
1359547231957,18.2898
1359547291957,18.3209
1359547351957,18.2614
1359547411957,18.3044
1359547471957,18.3121
1359547531957,18.3453
1359547591957,18.2512
1359547651957,18.2992
1359547711957,18.2846
1359547771957,18.2629
1359547831957,18.3073
1359547891957,18.3095
1359547951957,18.2856
1359548011957,18.2940
1359548071957,18.2886
1359548131957,18.2919
1359548191957,18.2765
1359548251957,18.2344
1359548311957,18.2787
1359548371957,18.2532
1359548431957,18.3107
1359548491957,18.2561
1359548551957,18.2582
1359548611957,18.2501
1359548671957,18.2378
1359548731957,18.2507
1359548791957,18.2871
1359548851957,18.2871
1359548911957,18.2551
1359548971957,18.2663
1359549031957,18.3084
1359549091957,18.3156
1359549151957,18.2771
1359549211957,18.3369
1359549271957,18.3128
1359549331957,18.3268
1359549391957,18.3727
1359549451957,18.3425
1359549511957,18.3465
1359549571957,18.3285
1359549631957,18.3325
1359549691957,18.3558
1359549751957,18.4132
1359549811957,18.3502
1359549871957,18.3543
1359549931957,18.3941
1359549991957,18.4308
1359550051957,18.4236
1359550111957,18.4127
1359550171957,18.4266
1359550231957,18.4098
1359550291957,18.3862
1359550351957,18.4063
1359550411957,18.4520
1359550471957,18.4035
1359550531957,18.3436
1359550591957,18.3577
1359550651957,18.3590
1359550711957,18.3241
1359550771957,18.3783
1359550831969,18.3543
1359550891969,18.3694
1359550951969,18.3432
1359551011969,18.3936
1359551071969,18.3569
1359551131969,18.3370
1359551191969,18.2845
1359551251969,18.2628
1359551311969,18.2638
1359551371969,18.2954
1359551431969,18.2634
1359551491969,18.2475
1359551551969,18.1817
1359551611969,18.3038
1359551671969,18.2986
1359556231980,18.3190
1359556291980,18.3051
1359556351980,18.3369
1359556411980,18.3386
1359556471980,18.2840
1359556531980,18.2709
1359560911992,18.3480
1359560971992,18.3605
1359561031992,18.3463
1359561091992,18.3088
1359561151992,18.3524
1359561211992,18.3416
1359561271992,18.3187
1359561331992,18.3251
1359561391992,18.3019
1359561451992,18.3067
1359561511992,18.3000
1359561571992,18.2617
1359561632003,18.2979
1359561692003,18.3041
1359561752003,18.2244
1359561812003,18.2252
1359561872003,18.2485
1359561932003,18.3076
1359561992003,18.2523
1359562052003,18.2606
1359562112003,18.2684
1359562172003,18.2619
1359562232003,18.2469
1359562292003,18.3100
1359562352003,18.2290
1359562412003,18.2608
1359562472003,18.2385
1359562532003,18.3068
1359562592003,18.2700
1359562652003,18.2869
1359562712003,18.2688
1359562772003,18.2549
1359562832003,18.2918
1359562892003,18.2537
1359562952003,18.3248
1359563012003,18.2720
1359563072003,18.2600
1359563132003,18.2297
1359563192003,18.2998
1359563252003,18.3448
1359563312003,18.2882
1359563372003,18.3001
1359572432037,18.2502
1359572492037,18.2431
1359572552037,18.2893
1359572612037,18.2602
1359572672037,18.2434
1359572732037,18.2643
1359572792037,18.2984
1359572852037,18.1957
1359572912037,18.2716
1359572972037,18.2440
1359573032037,18.2112
1359573092037,18.2907
1359573152037,18.1996
1359573212037,18.2415
1359573272037,18.2812
1359573332037,18.2821
1359573392037,18.2529
1359573452037,18.3267
1359573512037,18.3494
1359573572037,18.3992
1359573632037,18.3111
1359573692037,18.3247
1359573752037,18.3366
1359573812037,18.3358
1359573872037,18.3584
1359573932037,18.2927
1359573992037,18.3514
1359574052037,18.3329
1359574112037,18.3120
1359574172037,18.3030
1359574232037,18.3247
1359574292037,18.2723
1359574352037,18.3589
1359574412037,18.3022
1359574472037,18.3023
1359574532037,18.3053
1359574592037,18.2734
1359574652037,18.2500
1359574712037,18.2923
1359574772037,18.2833
1359574832037,18.2801
1359574892037,18.3013
1359574952037,18.3114
1359575012037,18.2921
1359575072037,18.2883
1359575132037,18.2173
1359575192037,18.2716
1359575252037,18.2509
1359575312037,18.2432
1359575372037,18.2637
1359575432037,18.2912
1359575492037,18.2686
1359575552037,18.1907
1359575612037,18.2449
1359575672037,18.2217
1359575732037,18.2139
1359575792037,18.1611
1359575852037,18.2358
1359575912037,18.2350
1359575972037,18.2835
1359576032047,18.2350
1359576092047,18.2108
1359576152047,18.2146
1359576212047,18.2506
1359576272047,18.2370
1359576332047,18.2632
1359576392047,18.2664
1359576452047,18.2628
1359576512047,18.2661
1359576572047,18.2836
1359576632047,18.2288
1359576692047,18.2547
1359576752047,18.2480
1359576812047,18.2162
1359576872047,18.2051
1359576932047,18.1658
1359576992047,18.2391
1359577052047,18.2233
1359577112047,18.2828
1359577172047,18.2212
1359577232047,18.1748
1359577292047,18.2554
1359577352047,18.3144
1359577412047,18.3030
1359577472047,18.2847
1359577532047,18.3122
1359577592047,18.2800
1359577652047,18.2477
1359577712047,18.3015
1359577772047,18.2137
1359577832047,18.2300
1359577892047,18.2622
1359577952047,18.3032
1359578012047,18.2775
1359578072047,18.2972
1359578132047,18.3112
1359578192047,18.2618
1359578252047,18.3427
1359578312047,18.2915
1359578372047,18.2776
1359578432047,18.2643
1359578492047,18.2878
1359578552047,18.2652
1359578612047,18.3315
1359578672047,18.2700
1359578732047,18.2867
1359578792047,18.3066
1359578852047,18.2798
1359578912047,18.2774
1359578972047,18.3616
1359579032047,18.3275
1359579092047,18.3404
1359579152047,18.2896
1359579212047,18.2536
1359579272047,18.2558
1359579332047,18.3087
1359579392047,18.3207
1359579452047,18.2802
1359579512047,18.2460
1359579572047,18.3098
1359579632058,18.2881
1359579692058,18.3105
1359579752058,18.3305
1359579812058,18.2549
1359579872058,18.4137
1359579932058,18.2926
1359579992058,18.3439
1359580052058,18.3704
1359580112058,18.3609
1359580172058,18.2845
1359580232058,18.3536
1359580292058,18.2802
1359580832058,18.2643
1359580892058,18.2970
1359580952058,18.2724
1359581012058,18.2257
1359581072058,18.2939
1359581132058,18.2769
1359581192058,18.2637
1359581252058,18.2957
1359581312058,18.2551
1359581372058,18.2645
1359581432058,18.2383
1359581492058,18.3240
1359581552058,18.2608
1359581612058,18.2509
1359581672058,18.2970
1359581732058,18.2320
1359581792058,18.2348
1359581852058,18.2855
1359581912058,18.2579
1359581972058,18.2917
1359582032058,18.2256
1359582092058,18.2393
1359582152058,18.2422
1359582212058,18.2629
1359582272058,18.2147
1359582332058,18.2685
1359582392058,18.2672
1359582452058,18.2812
1359582512058,18.3044
1359582572058,18.2449
1359582632058,18.2872
1359582692058,18.2714
1359582752058,18.2718
1359582812058,18.2481
1359582872058,18.2378
1359582932058,18.2431
1359582992058,18.2785
1359583052058,18.2444
1359583112058,18.2582
1359583172058,18.2694
1359583232069,18.2765
1359583292069,18.2993
1359583352069,18.2580
1359583412069,18.2703
1359583472069,18.3174
1359583532069,18.2639
1359583592069,18.2605
1359583652069,18.2197
1359583712069,18.2505
1359583772069,18.3594
1359583832069,18.4311
1359583892069,18.3309
1359583952069,18.3253
1359584012069,18.2557
1359584072069,18.3119
1359584132069,18.2875
1359584192069,18.3188
1359584252069,18.3279
1359584312069,18.2883
1359584372069,18.3854
1359584432069,18.3437
1359584492069,18.3096
1359584552069,18.3307
1359584612069,18.3083
1359584672069,18.2987
1359584732069,18.3338
1359584792069,18.3880
1359584852069,18.3064
1359584912069,18.2804
1359584972069,18.2744
1359585032069,18.3076
1359585092069,18.3074
1359585152069,18.3390
1359585212069,18.3470
1359585272069,18.3679
1359585332069,18.3046
1359585392069,18.3493
1359585452069,18.3219
1359585512069,18.2959
1359585572069,18.3543
1359585632069,18.3201
1359585692069,18.3258
1359585752069,18.2838
1359585812069,18.3125
1359585872069,18.2963
1359585932069,18.3536
1359585992069,18.3329
1359586052069,18.2888
1359586112069,18.3374
1359586172069,18.3561
1359586232069,18.3137
1359586292069,18.3175
1359586352069,18.2957
1359586412069,18.2739
1359586472069,18.2712
1359586532069,18.2265
1359586592069,18.1844
1359586652069,18.2419
1359586712069,18.2907
1359586772069,18.3016
1359586832080,18.2436
1359586892080,18.2649
1359586952080,18.2790
1359587012080,18.1711
1359587072080,18.2076
1359587132080,18.2308
1359587192080,18.2672
1359587252079,18.2323
1359587312079,18.2581
1359587372079,18.2591
1359587432079,18.2513
1359587492080,18.2989
1359587552080,18.2535
1359587612080,18.2527
1359587672080,18.2624